This demonstration page uses our WeatherBlox Daily Observations layout. Learn more.

40.92945, -100.16068

Hourly Observations for December 1, 2017

Temp ( °F °C ) Dew Point ( °F °C ) Humidity (%) Winds ( mph kmh ) Pressure ( in mb ) Visibility ( mi km ) Precip ( " mm )
12:15 am 00:15 Clear 37 2.8 21 -6.1 52 52 S 8 13 30.18 1022 10 16.09344 0 0
12:35 am 00:35 Clear 37 2.6 21 -5.9 54 54 SSW 10 17 30.15 1021 10 16.09344 0 0
12:55 am 00:55 Clear 37 3 22 -5.8 53 53 S 10 17 30.15 1021 10 16.09344 0 0
1:15 am 01:15 Clear 37 2.7 22 -5.8 54 54 S 6 9 30.15 1021 10 16.09344 0 0
1:35 am 01:35 Clear 35 1.6 21 -6.2 57 57 ESE 3 6 30.15 1021 10 16.09344 0 0
1:55 am 01:55 Clear 34 1.1 21 -6.1 59 59 SSE 5 7 30.18 1022 10 16.09344 0 0
2:15 am 02:15 Clear 34 1.2 21 -6.3 58 58 SE 3 6 30.18 1022 10 16.09344 0 0
2:35 am 02:35 Clear 31 -0.6 20 -6.9 63 63 SE 5 7 30.18 1022 10 16.09344 0 0
2:55 am 02:55 Clear 31 -0.7 20 -6.8 64 64 SSE 9 15 30.15 1021 10 16.09344 0 0
3:15 am 03:15 Clear 32 0.1 22 -5.7 65 65 SSE 7 11 30.15 1021 10 16.09344 0 0
3:35 am 03:35 Clear 33 0.3 21 -6 63 63 SSE 6 9 30.15 1021 10 16.09344 0 0
3:55 am 03:55 Clear 32 0 20 -6.4 62 62 SSE 6 9 30.15 1021 10 16.09344 0 0
4:15 am 04:15 Clear 32 -0.1 20 -6.4 63 63 SSE 5 7 30.15 1021 10 16.09344 0 0
4:35 am 04:35 Clear 31 -0.8 20 -6.6 65 65 SSE 6 9 30.15 1021 10 16.09344 0 0
4:55 am 04:55 Clear 30 -1.1 21 -6.3 68 68 SSE 7 11 30.15 1021 10 16.09344 0 0
5:15 am 05:15 Clear 31 -0.8 21 -6.3 67 67 SSE 5 7 30.15 1021 10 16.09344 0 0
5:35 am 05:35 Clear 29 -1.7 21 -6.3 71 71 SSE 8 13 30.15 1021 10 16.09344 0 0
5:55 am 05:55 Clear 31 -0.7 21 -6 68 68 SSE 7 11 30.15 1021 10 16.09344 0 0
6:15 am 06:15 Clear 31 -0.5 21 -5.9 67 67 SSE 6 9 30.15 1021 10 16.09344 0 0
6:35 am 06:35 Clear 29 -1.5 20 -6.4 70 70 SE 6 9 30.12 1020 10 16.09344 0 0
6:55 am 06:55 Clear 29 -1.5 21 -6.1 71 71 SSE 6 9 30.12 1020 10 16.09344 0 0
7:15 am 07:15 Clear 29 -1.6 20 -6.5 70 70 Calm 30.15 1021 10 16.09344 0 0
7:35 am 07:35 Clear 24 -4.7 18 -7.6 80 80 SE 6 9 30.15 1021 10 16.09344 0 0
7:55 am 07:55 Sunny 23 -5 18 -7.9 80 80 Calm 30.21 1023 10 16.09344 0 0
8:15 am 08:15 Sunny 24 -4.7 19 -7.4 82 82 SSE 3 6 30.18 1022 10 16.09344 0 0
8:35 am 08:35 Sunny 26 -3.2 21 -5.9 82 82 Calm 30.18 1022 10 16.09344 0 0
8:55 am 08:55 Sunny 31 -0.5 24 -4.6 74 74 Calm 30.15 1021 10 16.09344 0 0
9:15 am 09:15 Sunny 34 1.1 25 -4.1 69 69 S 5 7 30.12 1020 10 16.09344 0 0
9:35 am 09:35 Sunny 38 3.5 27 -2.9 63 63 S 8 13 30.09 1019 10 16.09344 0 0
9:55 am 09:55 Sunny 40 4.6 26 -3.1 58 58 SSW 10 17 30.06 1018 10 16.09344 0 0
10:15 am 10:15 Sunny 42 5.5 26 -3.2 54 54 SSW 9 15 30.06 1018 10 16.09344 0 0
10:35 am 10:35 Sunny 42 5.5 26 -3.2 54 54 SW 8 13 30.06 1018 10 16.09344 0 0
10:55 am 10:55 Sunny 43 5.9 26 -3.3 52 52 W 7 11 30.06 1018 10 16.09344 0 0
11:15 am 11:15 Sunny 43 6.3 26 -3.5 50 50 W 3 6 30.06 1018 10 16.09344 0 0
11:35 am 11:35 Sunny 44 6.8 26 -3.2 49 49 WNW 8 13 30.03 1017 10 16.09344 0 0
11:55 am 11:55 Sunny 45 7.3 26 -3.1 48 48 WNW 6 9 30.03 1017 10 16.09344 0 0
12:15 pm 12:15 Sunny 46 7.7 26 -3.4 46 46 Calm 30.03 1017 10 16.09344 0 0
12:35 pm 12:35 Sunny 47 8.3 26 -3.1 45 45 Calm 30 1016 10 16.09344 0 0
12:55 pm 12:55 Sunny 48 8.8 26 -3.2 43 43 Calm 30 1016 10 16.09344 0 0
1:15 pm 13:15 Sunny 48 8.8 26 -3.6 42 42 Calm 30 1016 10 16.09344 0 0
1:35 pm 13:35 Sunny 49 9.6 26 -3.3 40 40 SE 3 6 30 1016 10 16.09344 0 0
1:55 pm 13:55 Sunny 51 10.5 26 -3.1 39 39 Calm 29.94 1014 10 16.09344 0 0
2:15 pm 14:15 Sunny 51 10.6 26 -3.4 38 38 Calm 29.94 1014 10 16.09344 0 0
2:35 pm 14:35 Sunny 52 11.1 26 -3.5 36 36 Calm 29.97 1015 10 16.09344 0 0
2:55 pm 14:55 Sunny 52 11 26 -3.4 37 37 Calm 29.97 1015 10 16.09344 0 0
3:15 pm 15:15 Sunny 53 11.6 26 -3.4 35 35 Calm 29.97 1015 10 16.09344 0 0
3:35 pm 15:35 Sunny 53 11.7 26 -3.4 35 35 Calm 29.97 1015 10 16.09344 0 0
3:55 pm 15:55 Sunny 53 11.8 26 -3.5 34 34 Calm 29.97 1015 10 16.09344 0 0
4:15 pm 16:15 Sunny 53 11.6 26 -3.4 35 35 Calm 29.97 1015 10 16.09344 0 0
4:35 pm 16:35 Sunny 53 11.4 26 -3.4 36 36 Calm 29.97 1015 10 16.09344 0 0
4:55 pm 16:55 Sunny 51 10.7 25 -3.7 36 36 Calm 29.97 1015 10 16.09344 0 0
5:15 pm 17:15 Clear 48 9 27 -2.8 44 44 Calm 30.03 1017 10 16.09344 0 0
5:35 pm 17:35 Clear 47 8.5 26 -3.5 43 43 Calm 30.03 1017 10 16.09344 0 0
5:55 pm 17:55 Clear 42 5.5 17 -8.6 36 36 SSE 8 13 30.21 1023 10 16.09344 0 0
6:15 pm 18:15 Clear 40 4.5 25 -4 54 54 NNW 3 6 30.09 1019 10 16.09344 0 0
6:35 pm 18:35 Hazy 36 2.1 25 -4 64 64 N 8 13 30.12 1020 5 8.04672 0 0
6:55 pm 18:55 Clear 35 1.9 24 -4.3 64 64 NNE 3 6 30.12 1020 10 16.09344 0 0
7:15 pm 19:15 Clear 37 2.7 24 -4.6 59 59 NNE 7 11 30.12 1020 10 16.09344 0 0
7:35 pm 19:35 Clear 36 2.4 24 -4.4 61 61 N 3 6 30.12 1020 10 16.09344 0 0
7:55 pm 19:55 Clear 35 1.6 24 -4.4 65 65 N 8 13 30.12 1020 10 16.09344 0 0
8:15 pm 20:15 Partly Cloudy 38 3.1 24 -4.3 59 59 N 7 11 30.12 1020 10 16.09344 0 0
8:35 pm 20:35 Partly Cloudy 36 2.3 25 -3.7 65 65 N 9 15 30.15 1021 10 16.09344 0 0
8:55 pm 20:55 Partly Cloudy 41 5.1 24 -4.5 50 50 NNE 7 11 30.12 1020 10 16.09344 0 0
9:15 pm 21:15 Mostly Cloudy 38 3.4 26 -3.3 62 62 Calm 30.15 1021 10 16.09344 0 0
9:35 pm 21:35 Partly Cloudy 39 3.9 25 -4.1 56 56 NNE 6 9 30.15 1021 10 16.09344 0 0
9:55 pm 21:55 Clear 40 4.3 23 -4.8 52 52 NNW 3 6 30.18 1022 10 16.09344 0 0
10:15 pm 22:15 Clear 35 1.7 25 -4.1 66 66 Calm 30.15 1021 10 16.09344 0 0
10:35 pm 22:35 Clear 33 0.8 22 -5.3 64 64 WSW 5 7 30.18 1022 10 16.09344 0 0
10:55 pm 22:55 Clear 32 -0.1 22 -5.6 67 67 W 6 9 30.21 1023 10 16.09344 0 0
11:15 pm 23:15 Clear 31 -0.5 22 -5.6 69 69 W 5 7 30.21 1023 10 16.09344 0 0
11:35 pm 23:35 Clear 29 -1.7 21 -6 73 73 WNW 8 13 30.24 1024 10 16.09344 0 0
11:55 pm 23:55 Clear 29 -1.7 21 -6.1 72 72 WNW 9 15 30.24 1024 10 16.09344 0 0

Powered by AerisWeather